ATLAS 5 CENTAUR R/B, 40978

Orbit data source: Space-Track

ATLAS 5 CENTAUR R/B, 40978 is space debris in LEO originally from an American launch on Thu, 08 Oct 2015 UTC via an ATLAS V 401 launch vehicle from the Air Force Western Test Range (AFWTR). Debris objects in space refer to the collection of defunct objects orbiting the Earth. Examples of debris include non-operational satellites, rocket bodies, and fragments generated from explosions, collisions, or faulty payload assembly.

Loading next visibility...
ATLAS 5 CENTAUR R/B details
Identifier
40978, 2015-058Q
Orbit
LEO
Last TLE update23 hours ago
Origin
Flag of USNROC/CALP (US)
ManufacturerUSN PGS
MissionSpacecraft
Bus & MotorNPSCUL, Unknown motor
Mass~2,065 kg wet, ~45 kg dry
Launch date (UTC)
2015-10-08 (9 years ago)
Launch vehicle
ATLAS V 401
Launch site
Air Force Western Test Range (AFWTR)
Object type
Payload
Rocket body
Debris
Shape & HBRCyl + 1 Nozzle, 0.5 m
Radar Cross Section0.295 m², Large (>1 m²)

Expand to show TLE details & history

TLE from 23 hours ago
0 ATLAS 5 CENTAUR R/B
1 40978U 15058Q   24360.52846330  .00017087  00000-0  11299-2 0  9990
2 40978  64.7715  41.9296 0170468 248.0451 110.2472 14.96302425 34359
Epoch: 2024-12-25T12:40Z
Definitive object data (Epoch: 2024-12-25T12:40:59.229Z)
Latitude0.00001°
Longitude117.1619°
Altitude623.152 km
Speed7.524 km/s
True Right ascension02h 47m 43s
True Declination0° 00' 00"
Sunlit
Object was in full shadow at TLE epoch
Visualization TLE readout
Latitude16.5812°
Longitude122.23999°
Altitude655.671 km
Speed7.49 km/s
Apparent Right ascension01h 15m 54s
Apparent Declination-12° 05' 28"
Sunlit
Object is in full shadow
Visualization observer readout
Local Sidereal Time10:34:39
Azimuth296.675° NW
Elevation-44.936°
Doppler factor1
Orbital elements
Apogee altitude695.458 km
Perigee altitude458.336 km
Semi-major axis6,955.034 km
Eccentricity0.0170468
Inclination64.7715°
RAAN41.9296°
Arg. of periapsis248.0451°
True anomaly112.06619°
Mean anomaly110.2472°
Eccentric anomaly111.15807°
Mean motion3.74192 °/min
BSTAR0.0011299
Orbital period96.21 mins
Loading maneuver chart data...
Loading historical data...
Loading historical data...
Loading historical data...
Loading historical data...
Loading historical data...
Loading historical data...
Loading historical data...

ATLAS 5 CENTAUR R/B Visibility forecast

Observer location: undefined°, undefined

Span
Click to sort rows by Start time (UTC) header in descending order
Start Az.
Max El. time (UTC)
Max El. Az.
Max El.
End time (UTC)
End Az.
6 mins2024-12-26 13:18:21.152Z342.472° N2024-12-26 13:21:21.152Z74.555° E40.075°2024-12-26 13:24:21.152Z131.813° SE
5 mins2024-12-27 03:19:21.152Z139.828° SSE2024-12-27 03:21:21.152Z110.681° ESE17.379°2024-12-27 03:24:21.152Z69.967° E
7 mins2024-12-27 04:57:21.152Z236.82° WSW2024-12-27 05:00:21.152Z319.172° NNW38.862°2024-12-27 05:04:21.152Z21.856° NNE
|